Regional Weather Roundup
Issued by NWS Wilmington, NC

Home | Current Version | Previous Version | Text Only | Print | Product List | Glossary On
Versions: 1 2 3 4 5 6 7 8 9 10 11 12 13 14 15 16 17 18 19 20 21 22 23 24 25 26 27
000
ASUS42 KILM 212113
RWRILM
RWRILM
REGIONAL HOURLY WEATHER ROUNDUP
NATIONAL WEATHER SERVICE WILMINGTON NC
400 PM EST WED FEB 21 2018

NOTE: "FAIR" INDICATES FEW OR NO CLOUDS BELOW 12,000 FEET WITH NO
SIGNIFICANT WEATHER AND/OR OBSTRUCTIONS TO VISIBILITY.

...............WFO WILMINGTON COUNTY WARNING AREA...............

......COASTAL NC AND SC COUNTIES......

CITY           SKY/WX    TMP DP  RH WIND       PRES   REMARKS
WILMINGTON     PTSUNNY   77  64  64 S12       30.42S
N MYRTLE BEACH FAIR      72  66  81 S9        30.43S
MYRTLE BEACH   FAIR      73  66  78 S10       30.44S

......INLAND NC AND SC COUNTIES.......

CITY           SKY/WX    TMP DP  RH WIND       PRES   REMARKS
LUMBERTON      FAIR      80  62  54 S8        30.38F
ELIZABETHTOWN  NOT AVBL
WHITEVILLE     CLOUDY    78  63  60 S6        30.40F
FLORENCE       PTSUNNY   81  63  54 W7        30.39F
DARLINGTON     CLOUDY    73  67  81 W10       30.40S
KINGSTREE      CLOUDY    77  64  65 SE10      30.39F
HARTSVILLE     CLOUDY    70  68  94 CALM      30.40F FOG
BENNETTSVILLE  CLOUDY    79  63  57 W7        30.39R
CONWAY         PTSUNNY   77  68  73 S8        30.41F HAZE
GEORGETOWN     PTSUNNY   73  70  88 S9G16     30.43S
MARION         PTSUNNY   79  63  57 S5        30.39F

....................REST OF NORTH CAROLINA......................

.........EASTERN NC.........

CITY           SKY/WX    TMP DP  RH WIND       PRES   REMARKS
CAPE HATTERAS  FAIR      71  66  84 SW7       30.44F
JACKSONVILLE   PTSUNNY   79  65  62 S9        30.41F
MOREHEAD CITY  FAIR      72  65  78 SW10      30.44S
KENANSVILLE    FAIR      81  61  50 S6        30.40F
NEW BERN       FAIR      76  62  62 S9        30.42S
ELIZABETH CITY FAIR      79  64  60 SW14      30.39S

.........CENTRAL NC.........

CITY           SKY/WX    TMP DP  RH WIND       PRES   REMARKS
RALEIGH DURHAM PTSUNNY   76  62  62 SW8       30.40F
ROCKY MOUNT    FAIR      77  63  61 SW8       30.40F
ROANOKE RAPIDS NOT AVBL
FAYETTEVILLE   PTSUNNY   80  62  54 S10       30.39F
HOFFMAN        FAIR      78  62  57 SW6       30.39F

.........WESTERN NC.........

CITY           SKY/WX    TMP DP  RH WIND       PRES   REMARKS
CHARLOTTE      PTSUNNY   78  63  59 S8        30.38F
GREENSBORO     PTSUNNY   76  61  59 SW14      30.37F
HICKORY        NOT AVBL
BOONE          NOT AVBL
ASHEVILLE      NOT AVBL

.....................REST OF SOUTH CAROLINA.....................

.........EASTERN SC.........

CITY           SKY/WX    TMP DP  RH WIND       PRES   REMARKS
CHARLESTON     PTSUNNY   78  66  66 S15       30.41S
BEAUFORT MCAS  PTSUNNY   76  70  82 S10       30.40F
HILTON HEAD    MOSUNNY   75  68  78 S8        30.43S

.........CENTRAL SC.........

CITY           SKY/WX    TMP DP  RH WIND       PRES   REMARKS
COLUMBIA       FAIR      83  65  54 S9        30.35F
ORANGEBURG     CLOUDY    79  66  64 S7        30.38F
SUMTER SHAW    MOSUNNY   79  65  61 S9        30.37F

.........WESTERN SC.........

CITY           SKY/WX    TMP DP  RH WIND       PRES   REMARKS
GREENVILLE     NOT AVBL
ROCK HILL      PTSUNNY   76  64  66 W7        30.38F
ANDERSON       FAIR      76  63  64 S5        30.36F
CLEMSON        NOT AVBL
GREENWOOD      FAIR      78  63  59 S9        30.38F


...................COASTAL AND OFFSHORE REPORTS..................

................LOCAL PIERS AND NC RESERVE................


STATION/POSITION TIME  SKY/WX   TEMP    WIND        PRES    VSBY
                                AIR SEA DIR/SP/G
                 (UTC)          (F)     (DEG/KT/KT) (MB)    (MI)
JOHNY MRCER PIER 2048            65 60  180/ 16/ 16 1030.6F
NC RESRV MASNBRO NOT AVBL
OCEAN CREST PIER NOT AVBL
SPRINGMAID  PIER 2048                               1033.8F


................COASTAL AND OFFSHORE BUOYS................


STATION/POSITION TIME  SKY/WX   TEMP    WIND        PRES    VSBY
                                AIR SEA DIR/SP/G
                 (UTC)          (F)     (DEG/KT/KT) (MB)    (MI)
DIMNDSHOAL 41025 2100            73 72  210/  8/ 12 1031.4
CAPE LOOKOUT     2100                   190/  7/  8 1031.3S
ONSLOW BAY 41036 NOT AVBL
ONSLOW BAY 41064 2008            72 70  240/  4/  6 1031.3S
ONSLOW BAY 41159 2100               71                N/A
WVE H/P(F/S)=  4/ 7 SWL H/P/D(F/S/D)=  2/ 90/13

MASNBO INL 41110 2059               60                N/A
WVE H/P(F/S)=  3/ 6 SWL H/P/D(F/S/D)=  2/100/12

WILM HARBR 41108 2100               60                N/A
WVE H/P(F/S)=  3/ 8

27SE WRITB 41037 2008            70 70  240/  4/  6 1031.1F
FRYING PAN 41013 2050            72 71  200/  6/  8 1030.9S
WVE H/P(F/S)=  4/ 7 SWL H/P/D(F/S/D)=  3/140/ 7

SUNST NRSH 41024 2008            62 58  180/  2/  6 1030.6F
CAPRS NRSH 41029 2008            63 59  130/  4/  8 1030.2F
EDISTO     41004 2100            73 68  170/  2/  4 1030.3


..........OFFSHORE BUOYS BEYOND 100 NM OFFSHORE...........
.....IN A TRIANGLE---HAT TO BERMUDA TO BAHAMAS TO HAT.....


STATION/POSITION TIME  SKY/WX   TEMP    WIND        PRES    VSBY
                                AIR SEA DIR/SP/G
                 (UTC)          (F)     (DEG/KT/KT) (MB)    (MI)
150E HAT   41001 NOT AVBL
W BERMUDA  41048 2100            69 70  110/ 12/ 14 1034.3
ATLANTIC S 41049 2050            72 75   60/ 19/ 23 1031.4R
WVE H/P(F/S)= 13/16 SWL H/P/D(F/S/D)= 11/ 30/16

E BAHAMAS  41046 2100            77 78   80/ 19/ 25 1026.4
NE BAHAMAS 41047 2050                    90/ 17/ 21 1029.9F
WVE H/P(F/S)=  8/ 9 SWL H/P/D(F/S/D)=  7/110/ 9

120E CANVRL41010 NOT AVBL

END




USA.gov is the U.S. government's official web portal to all federal, state and local government web resources and services.